Location: Bushey
(51.6333°N, 0.3667°W)
Time: 14:38:06
(UTC+00:00)

ASTEX 1 - Pass Details

Date: 03 March 2021
Orbit: 720 x 743 km, 92.7° (Epoch: 12 April)

Event Time Altitude Azimuth Distance (km) Brightness Sun altitude
Rises 19:19:13 0° 11° (N) 3,153 6.7 -15.3°
Reaches altitude 10° 19:21:40 10° 19° (NNE) 2,225 5.8 -15.7°
Maximum altitude 19:26:15 39° 88° (E) 1,078 3.8 -16.4°
Enters shadow 19:30:13 13° 154° (SSE) 1,989 5.3 -17.0°
